User: anonymous   Login
Location: Sungai Ketit
(2.6833°N, 113.2333°E)
Time: 07:28:16
(UTC+00:00)
Language:

Delta 202 - Orbit

View from above orbital plane
View from above orbital plane
View from above satellite
View from above satellite

Ground track
Ground track

The orbit data is extracted from the following two-line orbital elements,

1 21048U 91001B   24202.82368755  .00000157  00000-0  44564-5 0  9991
2 21048  18.4508 267.7259 1188554  63.7015 308.0513 11.85381509453806
Epoch (UTC): 20 July 2024 19:46:06
Eccentricity: 0.1188554
inclination: 18.4508°
perigee height: 781 km
apogee height: 2712 km
right ascension of ascending node: 267.7259°
argument of perigee: 63.7015°
revolutions per day: 11.85381509
mean anomaly at epoch: 308.0513°
orbit number at epoch: 45380

The dashed part of the orbit path shows where the satellite is in the earth's shadow,  

DLR